Galliano, LA

2:28 PM CST on December 06, 2016 (GMT -0600)
Galliano

Weather History for KGAO - February, 2013

Change the Weather History Date:

Sunday, February 24, 2013

  Actual Average (KHUM) Record (KHUM)
Temperature  
Mean Temperature 58 °F -  
Max Temperature 62 °F 66 °F 82 °F (1933)
Min Temperature 55 °F 46 °F 26 °F (1989)
Degree Days  
Heating Degree Days 6    
Growing Degree Days 8 (Base 50)    
Moisture  
Dew Point 57 °F    
Average Humidity 94    
Maximum Humidity 100    
Minimum Humidity 82    
Precipitation  
Precipitation 0.00 in - - ()
Sea Level Pressure  
Sea Level Pressure 29.88 in    
Wind  
Wind Speed 9 mph (NE)    
Max Wind Speed 20 mph    
Max Gust Speed 26 mph    
Visibility 8 miles    
Events Rain , Thunderstorm    
Averages and records for this station are not official NWS values.
T = Trace of Precipitation, MM = Missing Value Source: NWS Daily Summary

Daily Weather History Graph

Daily Weather History Graph

Search for Another Location

Airport or City:

Trip Planner

Search our weather history database for the weather conditions in past years. The results will help you decide how hot, cold, wet, or windy it might be!

Date:

Astronomy

Feb. 24, 2013 Rise Set
Actual Time 6:31 AM CST 5:57 PM CST
Civil Twilight 6:07 AM CST 6:21 PM CST
Nautical Twilight 5:39 AM CST 6:48 PM CST
Astronomical Twilight 5:12 AM CST 7:16 PM CST
Moon 5:08 PM CST (2/24) 5:27 AM CST (2/24)
Length of Visible Light 12h 13m
Length of Day
11h 25m
Waxing Gibbous, 99% of the Moon is Illuminated
Feb 24
Waxing Gibbous
Feb 25
Full
Mar 4
Last Quarter
Mar 11
New
Mar 19
First Quarter

Hourly Weather History & Observations

Time (CST) Temp. Dew Point Humidity Pressure Visibility Wind Dir Wind Speed Gust Speed Precip Events Conditions
12:15 AM 59.0 °F 55.4 °F 88% 29.93 in 10.0 mi NNE 6.9 mph - N/A   Unknown
12:35 AM 59.0 °F 55.4 °F 88% 29.94 in 10.0 mi North 6.9 mph - N/A   Unknown
12:55 AM 59.0 °F 55.4 °F 88% 29.94 in 10.0 mi NNE 5.8 mph - N/A   Unknown
1:15 AM 59.0 °F 55.4 °F 88% 29.93 in 10.0 mi NNE 8.1 mph - N/A   Unknown
1:35 AM 59.0 °F 55.4 °F 88% 29.94 in 10.0 mi NNE 9.2 mph - N/A   Unknown
1:55 AM 59.0 °F 53.6 °F 82% 29.94 in 10.0 mi NNE 6.9 mph - N/A   Unknown
2:15 AM 57.2 °F 53.6 °F 88% 29.93 in 10.0 mi NNE 8.1 mph - N/A   Unknown
2:35 AM 57.2 °F 53.6 °F 88% 29.93 in 10.0 mi North 8.1 mph - N/A   Unknown
2:55 AM 57.2 °F 53.6 °F 88% 29.93 in 10.0 mi North 9.2 mph - N/A   Unknown
3:15 AM 57.2 °F 53.6 °F 88% 29.92 in 10.0 mi NNE 8.1 mph - N/A   Unknown
3:35 AM 55.4 °F 53.6 °F 94% 29.91 in 10.0 mi North 8.1 mph - N/A   Unknown
3:55 AM 55.4 °F 53.6 °F 94% 29.91 in 10.0 mi NNE 9.2 mph - N/A   Unknown
4:15 AM 55.4 °F 53.6 °F 94% 29.92 in 10.0 mi North 8.1 mph - N/A   Unknown
4:35 AM 55.4 °F 53.6 °F 94% 29.92 in 10.0 mi NNE 5.8 mph - N/A   Unknown
4:55 AM 55.4 °F 53.6 °F 94% 29.93 in 10.0 mi NNE 4.6 mph - N/A   Unknown
5:15 AM 55.4 °F 53.6 °F 94% 29.93 in 10.0 mi NNE 8.1 mph - N/A   Unknown
5:35 AM 55.4 °F 53.6 °F 94% 29.92 in 10.0 mi NNE 5.8 mph - N/A   Unknown
5:55 AM 55.4 °F 53.6 °F 94% 29.92 in 10.0 mi NNE 5.8 mph - N/A   Unknown
6:15 AM 55.4 °F 53.6 °F 94% 29.93 in 10.0 mi NE 8.1 mph - N/A   Unknown
6:35 AM 55.4 °F 53.6 °F 94% 29.93 in 10.0 mi NE 8.1 mph - N/A   Unknown
7:15 AM 55.4 °F 55.4 °F 100% 29.94 in 4.0 mi NE 8.1 mph - N/A   Mist
7:35 AM 57.2 °F 55.4 °F 94% 29.94 in 4.0 mi North - - N/A   Mist
7:55 AM 57.2 °F 55.4 °F 94% 29.94 in 10.0 mi NNE 8.1 mph - N/A   Unknown
8:15 AM 59.0 °F 55.4 °F 88% 29.95 in 7.0 mi NE 8.1 mph - N/A   Unknown
8:35 AM 59.0 °F 55.4 °F 88% 29.96 in 7.0 mi NE 8.1 mph - N/A   Unknown
8:55 AM 59.0 °F 55.4 °F 88% 29.96 in 7.0 mi NE 6.9 mph - N/A   Unknown
9:15 AM 59.0 °F 57.2 °F 94% 29.95 in 7.0 mi NE 9.2 mph - N/A   Unknown
9:35 AM 59.0 °F 57.2 °F 94% 29.96 in 10.0 mi NE 9.2 mph - N/A   Unknown
9:55 AM 60.8 °F 57.2 °F 88% 29.95 in 10.0 mi NE 10.4 mph - N/A   Unknown
10:15 AM 60.8 °F 59.0 °F 94% 29.96 in 10.0 mi NE 10.4 mph - N/A   Unknown
10:35 AM 62.6 °F 59.0 °F 88% 29.96 in 10.0 mi NE 11.5 mph - N/A   Unknown
10:55 AM 62.6 °F 59.0 °F 88% 29.95 in 10.0 mi ENE 9.2 mph 17.3 mph N/A   Unknown
11:15 AM 62.6 °F 59.0 °F 88% 29.95 in 10.0 mi ENE 10.4 mph 17.3 mph N/A   Unknown
11:35 AM 62.6 °F 59.0 °F 88% 29.94 in 10.0 mi ENE 9.2 mph - N/A   Unknown
11:55 AM 62.6 °F 59.0 °F 88% 29.94 in 10.0 mi North - - N/A   Unknown
12:15 PM 62.6 °F 60.8 °F 94% 29.93 in 10.0 mi North - - N/A   Unknown
12:35 PM 62.6 °F 60.8 °F 94% 29.92 in 10.0 mi ENE 6.9 mph - N/A   Unknown
12:55 PM 62.6 °F 60.8 °F 94% 29.91 in 10.0 mi North - - N/A   Unknown
1:15 PM 62.6 °F 60.8 °F 94% 29.89 in 10.0 mi North - - N/A   Unknown
1:35 PM 62.6 °F 60.8 °F 94% 29.89 in 10.0 mi NNE 6.9 mph - N/A   Unknown
1:55 PM 62.6 °F 60.8 °F 94% 29.89 in 10.0 mi NNE 10.4 mph - N/A   Unknown
2:15 PM 62.6 °F 60.8 °F 94% 29.88 in 10.0 mi NE 11.5 mph 16.1 mph N/A   Unknown
2:35 PM 62.6 °F 60.8 °F 94% 29.87 in 10.0 mi NNE 10.4 mph - N/A   Unknown
2:55 PM 62.6 °F 60.8 °F 94% 29.86 in 10.0 mi NNE 9.2 mph - N/A   Unknown
3:15 PM 62.6 °F 60.8 °F 94% 29.86 in 10.0 mi NNE 10.4 mph 16.1 mph N/A   Unknown
3:35 PM 62.6 °F 60.8 °F 94% 29.85 in 10.0 mi NE 11.5 mph - N/A Rain Light Rain
3:55 PM 62.6 °F 60.8 °F 94% 29.85 in 10.0 mi NE 11.5 mph - N/A   Unknown
4:15 PM 62.6 °F 60.8 °F 94% 29.84 in 7.0 mi NNE 11.5 mph - N/A   Unknown
4:35 PM 62.6 °F 60.8 °F 94% 29.84 in 7.0 mi NE 10.4 mph - N/A   Unknown
4:55 PM 62.6 °F 60.8 °F 94% 29.83 in 5.0 mi NE 9.2 mph 19.6 mph N/A   Mist
5:15 PM 60.8 °F 60.8 °F 100% 29.83 in 7.0 mi NE 11.5 mph 17.3 mph N/A Thunderstorm Unknown
5:35 PM 60.8 °F 60.8 °F 100% 29.81 in 5.0 mi NNE 11.5 mph - N/A Rain , Thunderstorm Light Thunderstorms and Rain
5:55 PM 60.8 °F 59.0 °F 94% 29.85 in 3.0 mi NNE 10.4 mph - N/A Rain , Thunderstorm Heavy Thunderstorms and Rain
6:15 PM 59.0 °F 59.0 °F 100% 29.84 in 4.0 mi NNW 17.3 mph 21.9 mph N/A Rain , Thunderstorm Light Thunderstorms and Rain
6:35 PM 60.8 °F 59.0 °F 94% 29.81 in 10.0 mi NE 19.6 mph 26.5 mph N/A Thunderstorm Unknown
6:55 PM 60.8 °F 60.8 °F 100% 29.79 in 10.0 mi NE 15.0 mph 21.9 mph N/A   Unknown
7:15 PM 60.8 °F 60.8 °F 100% 29.81 in 7.0 mi NE 13.8 mph 19.6 mph N/A   Unknown
7:35 PM 60.8 °F 60.8 °F 100% 29.80 in 10.0 mi NE 15.0 mph 19.6 mph N/A Rain , Thunderstorm Light Thunderstorms and Rain
7:55 PM 60.8 °F 59.0 °F 94% 29.78 in 10.0 mi ENE 16.1 mph 20.7 mph N/A Rain , Thunderstorm Light Thunderstorms and Rain
8:15 PM 59.0 °F 59.0 °F 100% 29.78 in 10.0 mi ENE 15.0 mph 21.9 mph N/A   Unknown
8:35 PM 59.0 °F 59.0 °F 100% 29.79 in 10.0 mi ENE 13.8 mph 21.9 mph N/A   Unknown
8:55 PM 60.8 °F 59.0 °F 94% 29.79 in 10.0 mi ENE 11.5 mph 17.3 mph N/A   Unknown
9:15 PM 60.8 °F 59.0 °F 94% 29.78 in 7.0 mi ENE 11.5 mph 17.3 mph N/A   Unknown
9:35 PM 60.8 °F 59.0 °F 94% 29.79 in 7.0 mi NE 10.4 mph - N/A   Unknown
9:55 PM 59.0 °F 59.0 °F 100% 29.79 in 7.0 mi NE 10.4 mph - N/A   Unknown
10:15 PM 59.0 °F 57.2 °F 94% 29.78 in 4.0 mi NE 10.4 mph 17.3 mph N/A Thunderstorm Mist
10:35 PM 57.2 °F 57.2 °F 100% 29.76 in 2.5 mi NE 11.5 mph - N/A   Mist
10:55 PM 55.4 °F 55.4 °F 100% 29.76 in 1.5 mi NE 9.2 mph - N/A   Mist
11:15 PM 55.4 °F 55.4 °F 100% 29.76 in 1.2 mi NE 11.5 mph 18.4 mph N/A   Mist
11:35 PM 55.4 °F 55.4 °F 100% 29.74 in 1.8 mi NE 10.4 mph 20.7 mph N/A   Mist
11:55 PM 55.4 °F 55.4 °F 100% 29.73 in 3.0 mi ENE 11.5 mph 19.6 mph N/A   Mist